01/05/2024 03:15:00,0.854
01/05/2024 03:30:00,0.854
01/05/2024 03:45:00,0.855
01/05/2024 04:00:00,0.854
01/05/2024 04:15:00,0.854
01/05/2024 04:30:00,0.853
01/05/2024 04:45:00,0.853
01/05/2024 05:00:00,0.852
01/05/2024 05:15:00,0.852
01/05/2024 05:30:00,0.852
01/05/2024 05:45:00,0.852
01/05/2024 06:00:00,0.852
01/05/2024 06:15:00,0.852
01/05/2024 06:30:00,0.853
01/05/2024 06:45:00,0.852
01/05/2024 07:00:00,0.852
01/05/2024 07:15:00,0.852
01/05/2024 07:30:00,0.852
01/05/2024 07:45:00,0.852
01/05/2024 08:00:00,0.852
01/05/2024 08:15:00,0.853
01/05/2024 08:30:00,0.853
01/05/2024 08:45:00,0.852
01/05/2024 09:00:00,0.85
01/05/2024 09:15:00,0.851
01/05/2024 09:30:00,0.85
01/05/2024 09:45:00,0.849
01/05/2024 10:00:00,0.849
01/05/2024 10:15:00,0.849
01/05/2024 10:30:00,0.849
01/05/2024 10:45:00,0.848
01/05/2024 11:00:00,0.848
01/05/2024 11:15:00,0.847
01/05/2024 11:30:00,0.847
01/05/2024 11:45:00,0.847
01/05/2024 12:00:00,0.847
01/05/2024 12:15:00,0.847
01/05/2024 12:30:00,0.847
01/05/2024 12:45:00,0.846
01/05/2024 13:00:00,0.846
01/05/2024 13:15:00,0.845
01/05/2024 13:30:00,0.845
01/05/2024 13:45:00,0.845
01/05/2024 14:00:00,0.845
01/05/2024 14:15:00,0.845
01/05/2024 14:30:00,0.844
01/05/2024 14:45:00,0.845
01/05/2024 15:00:00,0.845
01/05/2024 15:15:00,0.845
01/05/2024 15:30:00,0.845
01/05/2024 15:45:00,0.845
01/05/2024 16:00:00,0.845
01/05/2024 16:15:00,0.844
01/05/2024 16:30:00,0.844
01/05/2024 16:45:00,0.844
01/05/2024 17:00:00,0.844
01/05/2024 17:15:00,0.844
01/05/2024 17:30:00,0.843
01/05/2024 17:45:00,0.842
01/05/2024 18:00:00,0.843
01/05/2024 18:15:00,0.842
01/05/2024 18:30:00,0.842
01/05/2024 18:45:00,0.842
01/05/2024 19:00:00,0.842
01/05/2024 19:15:00,0.84
01/05/2024 19:30:00,0.84
01/05/2024 19:45:00,0.84
01/05/2024 20:00:00,0.84
01/05/2024 20:15:00,0.84
01/05/2024 20:30:00,0.84
01/05/2024 20:45:00,0.84
01/05/2024 21:00:00,0.842
01/05/2024 21:15:00,0.841
01/05/2024 21:30:00,0.842
01/05/2024 21:45:00,0.842
01/05/2024 22:00:00,0.842
01/05/2024 22:15:00,0.842
01/05/2024 22:30:00,0.84
01/05/2024 22:45:00,0.84
01/05/2024 23:00:00,0.84
01/05/2024 23:15:00,0.84
01/05/2024 23:30:00,0.84
01/05/2024 23:45:00,0.839
02/05/2024 00:00:00,0.84
02/05/2024 00:15:00,0.84
02/05/2024 00:30:00,0.839
02/05/2024 00:45:00,0.839
02/05/2024 01:00:00,0.838
02/05/2024 01:15:00,0.838
02/05/2024 01:30:00,0.839
02/05/2024 01:45:00,0.839
02/05/2024 02:00:00,0.838
02/05/2024 02:15:00,0.838
02/05/2024 02:30:00,0.838
02/05/2024 02:45:00,0.837
02/05/2024 03:00:00,0.838
02/05/2024 03:15:00,0.837
02/05/2024 03:30:00,0.837
02/05/2024 03:45:00,0.837
02/05/2024 04:00:00,0.837
02/05/2024 04:15:00,0.837
02/05/2024 04:30:00,0.837
02/05/2024 04:45:00,0.837
02/05/2024 05:00:00,0.837
02/05/2024 05:15:00,0.838
02/05/2024 05:30:00,0.838
02/05/2024 05:45:00,0.838
02/05/2024 06:00:00,0.839
02/05/2024 06:15:00,0.839
02/05/2024 06:30:00,0.837
02/05/2024 06:45:00,0.837
02/05/2024 07:00:00,0.837
02/05/2024 07:15:00,0.837
02/05/2024 07:30:00,0.837
02/05/2024 07:45:00,0.835
02/05/2024 08:00:00,0.835
02/05/2024 08:15:00,0.835
02/05/2024 08:30:00,0.834
02/05/2024 08:45:00,0.835
02/05/2024 09:00:00,0.835
02/05/2024 09:15:00,0.837
02/05/2024 09:30:00,0.836
02/05/2024 09:45:00,0.837
02/05/2024 10:00:00,0.836
02/05/2024 10:15:00,0.834
02/05/2024 10:30:00,0.834
02/05/2024 10:45:00,0.835
02/05/2024 11:00:00,0.834
02/05/2024 11:15:00,0.837
02/05/2024 11:30:00,0.837
02/05/2024 11:45:00,0.836
02/05/2024 12:00:00,0.837
02/05/2024 12:15:00,0.835
02/05/2024 12:30:00,0.836
02/05/2024 12:45:00,0.836
02/05/2024 13:00:00,0.836
02/05/2024 13:15:00,0.837
02/05/2024 13:30:00,0.834
02/05/2024 13:45:00,0.837
02/05/2024 14:00:00,0.835
02/05/2024 14:15:00,0.835
02/05/2024 14:30:00,0.834
02/05/2024 14:45:00,0.835
02/05/2024 15:00:00,0.834
02/05/2024 15:15:00,0.834
02/05/2024 15:30:00,0.836
02/05/2024 15:45:00,0.838
02/05/2024 16:00:00,0.839
02/05/2024 16:15:00,0.839
02/05/2024 16:30:00,0.838
02/05/2024 16:45:00,0.837
02/05/2024 17:00:00,0.836
02/05/2024 17:15:00,0.834
02/05/2024 17:30:00,0.834
02/05/2024 17:45:00,0.833
02/05/2024 18:00:00,0.832
02/05/2024 18:15:00,0.832
02/05/2024 18:30:00,0.832
02/05/2024 18:45:00,0.83
02/05/2024 19:00:00,0.83
02/05/2024 19:15:00,0.83
02/05/2024 19:30:00,0.83
02/05/2024 19:45:00,0.829
02/05/2024 20:00:00,0.829
02/05/2024 20:15:00,0.83
02/05/2024 20:30:00,0.829
02/05/2024 20:45:00,0.829
02/05/2024 21:00:00,0.828
02/05/2024 21:15:00,0.828
02/05/2024 21:30:00,0.828
02/05/2024 21:45:00,0.828
02/05/2024 22:00:00,0.827
02/05/2024 22:15:00,0.828
02/05/2024 22:30:00,0.828
02/05/2024 22:45:00,0.829
02/05/2024 23:00:00,0.829
02/05/2024 23:15:00,0.829
02/05/2024 23:30:00,0.829
02/05/2024 23:45:00,0.828
03/05/2024 00:00:00,0.827
03/05/2024 00:15:00,0.827
03/05/2024 00:30:00,0.826
03/05/2024 00:45:00,0.826
03/05/2024 01:00:00,0.825
03/05/2024 01:15:00,0.825
03/05/2024 01:30:00,0.824
03/05/2024 01:45:00,0.824
03/05/2024 02:00:00,0.824
03/05/2024 02:15:00,0.824
03/05/2024 02:30:00,0.824
03/05/2024 02:45:00,0.824
03/05/2024 03:00:00,0.824
03/05/2024 03:15:00,0.824
03/05/2024 03:30:00,0.822
03/05/2024 03:45:00,0.822
03/05/2024 04:00:00,0.822
03/05/2024 04:15:00,0.821
03/05/2024 04:30:00,0.821
03/05/2024 04:45:00,0.821
03/05/2024 05:00:00,0.821
03/05/2024 05:15:00,0.822
03/05/2024 05:30:00,0.822
03/05/2024 05:45:00,0.822
03/05/2024 06:00:00,0.822
03/05/2024 06:15:00,0.822
03/05/2024 06:30:00,0.821
03/05/2024 06:45:00,0.821
03/05/2024 07:00:00,0.821
03/05/2024 07:15:00,0.82
03/05/2024 07:30:00,0.82
03/05/2024 07:45:00,0.819
03/05/2024 08:00:00,0.82
03/05/2024 08:15:00,0.821
03/05/2024 08:30:00,0.82
03/05/2024 08:45:00,0.82
03/05/2024 09:00:00,0.821
03/05/2024 09:15:00,0.819
03/05/2024 09:30:00,0.82
03/05/2024 09:45:00,0.819
03/05/2024 10:00:00,0.82
03/05/2024 10:15:00,0.819
03/05/2024 10:30:00,0.819
03/05/2024 10:45:00,0.819
03/05/2024 11:00:00,0.821
03/05/2024 11:15:00,0.819
03/05/2024 11:30:00,0.819
03/05/2024 11:45:00,0.819
03/05/2024 12:00:00,0.819
03/05/2024 12:15:00,0.818
03/05/2024 12:30:00,0.818
03/05/2024 12:45:00,0.817
03/05/2024 13:00:00,0.819
03/05/2024 13:15:00,0.819
03/05/2024 13:30:00,0.817
03/05/2024 13:45:00,0.819
03/05/2024 14:00:00,0.82
03/05/2024 14:15:00,0.821
03/05/2024 14:30:00,0.819
03/05/2024 14:45:00,0.819
03/05/2024 15:00:00,0.819
03/05/2024 15:15:00,0.819
03/05/2024 15:30:00,0.819
03/05/2024 15:45:00,0.819
03/05/2024 16:00:00,0.819
03/05/2024 16:15:00,0.819
03/05/2024 16:30:00,0.818
03/05/2024 16:45:00,0.818
03/05/2024 17:00:00,0.817
03/05/2024 17:15:00,0.816
03/05/2024 17:30:00,0.816
03/05/2024 17:45:00,0.814
03/05/2024 18:00:00,0.813
03/05/2024 18:15:00,0.813
03/05/2024 18:30:00,0.812
03/05/2024 18:45:00,0.812
03/05/2024 19:00:00,0.812
03/05/2024 19:15:00,0.811
03/05/2024 19:30:00,0.811
03/05/2024 19:45:00,0.811
03/05/2024 20:00:00,0.81
03/05/2024 20:15:00,0.81
03/05/2024 20:30:00,0.81
03/05/2024 20:45:00,0.809
03/05/2024 21:00:00,0.809
03/05/2024 21:15:00,0.809
03/05/2024 21:30:00,0.809
03/05/2024 21:45:00,0.809
03/05/2024 22:00:00,0.809
03/05/2024 22:15:00,0.808
03/05/2024 22:30:00,0.808
03/05/2024 22:45:00,0.808
03/05/2024 23:00:00,0.809
03/05/2024 23:15:00,0.808
03/05/2024 23:30:00,0.807
03/05/2024 23:45:00,0.808
04/05/2024 00:00:00,0.808
04/05/2024 00:15:00,0.808
04/05/2024 00:30:00,0.807
04/05/2024 00:45:00,0.807
04/05/2024 01:00:00,0.806
04/05/2024 01:15:00,0.806
04/05/2024 01:30:00,0.806
04/05/2024 01:45:00,0.806
04/05/2024 02:00:00,0.806
04/05/2024 02:15:00,0.806
04/05/2024 02:30:00,0.806
04/05/2024 02:45:00,0.806
04/05/2024 03:00:00,0.806
04/05/2024 03:15:00,0.806
04/05/2024 03:30:00,0.806
04/05/2024 03:45:00,0.806
04/05/2024 04:00:00,0.806
04/05/2024 04:15:00,0.806
04/05/2024 04:30:00,0.806
04/05/2024 04:45:00,0.806
04/05/2024 05:00:00,0.806
04/05/2024 05:15:00,0.806
04/05/2024 05:30:00,0.806
04/05/2024 05:45:00,0.806
04/05/2024 06:00:00,0.806
04/05/2024 06:15:00,0.806
04/05/2024 06:30:00,0.805
04/05/2024 06:45:00,0.804
04/05/2024 07:00:00,0.804
04/05/2024 07:15:00,0.804
04/05/2024 07:30:00,0.804
04/05/2024 07:45:00,0.804
04/05/2024 08:00:00,0.804
04/05/2024 08:15:00,0.804
04/05/2024 08:30:00,0.804
04/05/2024 08:45:00,0.804
04/05/2024 09:00:00,0.804
04/05/2024 09:15:00,0.804
04/05/2024 09:30:00,0.804
04/05/2024 09:45:00,0.804
04/05/2024 10:00:00,0.804
04/05/2024 10:15:00,0.804
04/05/2024 10:30:00,0.804
04/05/2024 10:45:00,0.804
04/05/2024 11:00:00,0.804
04/05/2024 11:15:00,0.804
04/05/2024 11:30:00,0.803
04/05/2024 11:45:00,0.803
04/05/2024 12:00:00,0.802
04/05/2024 12:15:00,0.802
04/05/2024 12:30:00,0.802
04/05/2024 12:45:00,0.802
04/05/2024 13:00:00,0.802
04/05/2024 13:15:00,0.802
04/05/2024 13:30:00,0.802
04/05/2024 13:45:00,0.802
04/05/2024 14:00:00,0.802
04/05/2024 14:15:00,0.801
04/05/2024 14:30:00,0.801
04/05/2024 14:45:00,0.801
04/05/2024 15:00:00,0.801
04/05/2024 15:15:00,0.801
04/05/2024 15:30:00,0.8
04/05/2024 15:45:00,0.8
04/05/2024 16:00:00,0.8
04/05/2024 16:15:00,0.8
04/05/2024 16:30:00,0.799
04/05/2024 16:45:00,0.799
04/05/2024 17:00:00,0.799
04/05/2024 17:15:00,0.799
04/05/2024 17:30:00,0.799
04/05/2024 17:45:00,0.799
04/05/2024 18:00:00,0.799
04/05/2024 18:15:00,0.798
04/05/2024 18:30:00,0.798
04/05/2024 18:45:00,0.798
04/05/2024 19:00:00,0.798
04/05/2024 19:15:00,0.798
04/05/2024 19:30:00,0.798
04/05/2024 19:45:00,0.798
04/05/2024 20:00:00,0.798
04/05/2024 20:15:00,0.798
04/05/2024 20:30:00,0.798
04/05/2024 20:45:00,0.798
04/05/2024 21:00:00,0.798
04/05/2024 21:15:00,0.798
04/05/2024 21:30:00,0.798
04/05/2024 21:45:00,0.798
04/05/2024 22:00:00,0.798
04/05/2024 22:15:00,0.798
04/05/2024 22:30:00,0.798
04/05/2024 22:45:00,0.798
04/05/2024 23:00:00,0.798
04/05/2024 23:15:00,0.798
04/05/2024 23:30:00,0.798
04/05/2024 23:45:00,0.798
05/05/2024 00:00:00,0.798
05/05/2024 00:15:00,0.798
05/05/2024 00:30:00,0.798
05/05/2024 00:45:00,0.798
05/05/2024 01:00:00,0.798
05/05/2024 01:15:00,0.798
05/05/2024 01:30:00,0.798
05/05/2024 01:45:00,0.798
05/05/2024 02:00:00,0.798
05/05/2024 02:15:00,0.798
05/05/2024 02:30:00,0.798
05/05/2024 02:45:00,0.798
05/05/2024 03:00:00,0.798
05/05/2024 03:15:00,0.798
05/05/2024 03:30:00,0.798
05/05/2024 03:45:00,0.798
05/05/2024 04:00:00,0.798
05/05/2024 04:15:00,0.798
05/05/2024 04:30:00,0.797
05/05/2024 04:45:00,0.798
05/05/2024 05:00:00,0.798
05/05/2024 05:15:00,0.797
05/05/2024 05:30:00,0.798
05/05/2024 05:45:00,0.797
05/05/2024 06:00:00,0.797
05/05/2024 06:15:00,0.797
05/05/2024 06:30:00,0.797
05/05/2024 06:45:00,0.797
05/05/2024 07:00:00,0.798
05/05/2024 07:15:00,0.798
05/05/2024 07:30:00,0.798
05/05/2024 07:45:00,0.798
05/05/2024 08:00:00,0.798
05/05/2024 08:15:00,0.797
05/05/2024 08:30:00,0.797
05/05/2024 08:45:00,0.797
05/05/2024 09:00:00,0.797
05/05/2024 09:15:00,0.796
05/05/2024 09:30:00,0.796
05/05/2024 09:45:00,0.796
05/05/2024 10:00:00,0.796
05/05/2024 10:15:00,0.796
05/05/2024 10:30:00,0.796
05/05/2024 10:45:00,0.796
05/05/2024 11:00:00,0.797
05/05/2024 11:15:00,0.796
05/05/2024 11:30:00,0.796
05/05/2024 11:45:00,0.796
05/05/2024 12:00:00,0.796
05/05/2024 12:15:00,0.796
05/05/2024 12:30:00,0.796
05/05/2024 12:45:00,0.796
05/05/2024 13:00:00,0.796
05/05/2024 13:15:00,0.796
05/05/2024 13:30:00,0.796
05/05/2024 13:45:00,0.796
05/05/2024 14:00:00,0.796
05/05/2024 14:15:00,0.796
05/05/2024 14:30:00,0.796
05/05/2024 14:45:00,0.796
05/05/2024 15:00:00,0.796
05/05/2024 15:15:00,0.796
05/05/2024 15:30:00,0.796
05/05/2024 15:45:00,0.796
05/05/2024 16:00:00,0.796
05/05/2024 16:15:00,0.796
05/05/2024 16:30:00,0.796
05/05/2024 16:45:00,0.796
05/05/2024 17:00:00,0.796
05/05/2024 17:15:00,0.796
05/05/2024 17:30:00,0.796
05/05/2024 17:45:00,0.796
05/05/2024 18:00:00,0.796
05/05/2024 18:15:00,0.796
05/05/2024 18:30:00,0.796
05/05/2024 18:45:00,0.796
05/05/2024 19:00:00,0.796
05/05/2024 19:15:00,0.796
05/05/2024 19:30:00,0.796
05/05/2024 19:45:00,0.796
05/05/2024 20:00:00,0.796
05/05/2024 20:15:00,0.796
05/05/2024 20:30:00,0.796
05/05/2024 20:45:00,0.796
05/05/2024 21:00:00,0.796
05/05/2024 21:15:00,0.796
05/05/2024 21:30:00,0.796
05/05/2024 21:45:00,0.796
05/05/2024 22:00:00,0.796
05/05/2024 22:15:00,0.796
05/05/2024 22:30:00,0.796
05/05/2024 22:45:00,0.796
05/05/2024 23:00:00,0.796
05/05/2024 23:15:00,0.796
05/05/2024 23:30:00,0.796
05/05/2024 23:45:00,0.796
06/05/2024 00:00:00,0.796
06/05/2024 00:15:00,0.796
06/05/2024 00:30:00,0.796
06/05/2024 00:45:00,0.796
06/05/2024 01:00:00,0.796
06/05/2024 01:15:00,0.796
06/05/2024 01:30:00,0.796
06/05/2024 01:45:00,0.796
06/05/2024 02:00:00,0.796
06/05/2024 02:15:00,0.796
06/05/2024 02:30:00,0.796
06/05/2024 02:45:00,0.796
